Albuquerque Double Eagle, NM

12:29 AM MST on November 21, 2017 (GMT -0700)
Double Eagle Ii

Weather History for KAEG - November, 2012

Change the Weather History Date:

Saturday, November 3, 2012

  Actual Average (KABQ) Record (KABQ)
Temperature  
Mean Temperature 52 °F -  
Max Temperature 64 °F 60 °F 80 °F (1918)
Min Temperature 41 °F 33 °F 19 °F (1991)
Degree Days  
Heating Degree Days 12    
Growing Degree Days 2 (Base 50)    
Moisture  
Dew Point 16 °F    
Average Humidity 28    
Maximum Humidity 42    
Minimum Humidity 19    
Precipitation  
Precipitation 0.00 in - - ()
Sea Level Pressure  
Sea Level Pressure 30.19 in    
Wind  
Wind Speed 6 mph (NNW)    
Max Wind Speed 10 mph    
Max Gust Speed -    
Visibility 10 miles    
Events      
Averages and records for this station are not official NWS values.
T = Trace of Precipitation, MM = Missing Value Source: NWS Daily Summary

Daily Weather History Graph

Daily Weather History Graph

Search for Another Location

Airport or City:

Trip Planner

Search our weather history database for the weather conditions in past years. The results will help you decide how hot, cold, wet, or windy it might be!

Date:

Astronomy

Nov. 03, 2012 Rise Set
Actual Time 7:30 AM MDT 6:10 PM MDT
Civil Twilight 7:04 AM MDT 6:36 PM MDT
Nautical Twilight 6:34 AM MDT 7:06 PM MDT
Astronomical Twilight 6:04 AM MDT 7:36 PM MDT
Moon 9:57 PM MDT (11/3) 11:33 AM MDT (11/3)
Length of Visible Light 11h 32m
Length of Day
10h 39m
Waning Gibbous, 80% of the Moon is Illuminated
Nov 3
Waning Gibbous
Nov 6
Last Quarter
Nov 13
New
Nov 20
First Quarter
Nov 28
Full

Hourly Weather History & Observations

Time (MDT) Temp. Windchill Dew Point Humidity Pressure Visibility Wind Dir Wind Speed Gust Speed Precip Events Conditions
12:15 AM 48.2 °F - 12.2 °F 24% 30.13 in 10.0 mi North 8.1 mph - N/A   Clear
12:35 AM 46.4 °F 42.4 °F 10.4 °F 23% 30.13 in 10.0 mi North 8.1 mph - N/A   Clear
12:55 AM 44.6 °F - 10.4 °F 25% 30.13 in 10.0 mi Calm Calm - N/A   Clear
1:15 AM 42.8 °F 38.6 °F 10.4 °F 27% 30.13 in 10.0 mi North 6.9 mph - N/A   Clear
1:35 AM 42.8 °F 37.5 °F 10.4 °F 27% 30.13 in 10.0 mi NNW 9.2 mph - N/A   Clear
1:55 AM 44.6 °F 40.7 °F 10.4 °F 25% 30.13 in 10.0 mi North 6.9 mph - N/A   Scattered Clouds
2:15 AM 46.4 °F - 10.4 °F 23% 30.14 in 10.0 mi Calm Calm - N/A   Mostly Cloudy
2:35 AM 48.2 °F - 14.0 °F 25% 30.15 in 10.0 mi North 4.6 mph - N/A   Mostly Cloudy
2:55 AM 46.4 °F 42.4 °F 14.0 °F 27% 30.15 in 10.0 mi North 8.1 mph - N/A   Partly Cloudy
3:15 AM 44.6 °F - 14.0 °F 29% 30.15 in 10.0 mi Calm Calm - N/A   Clear
3:35 AM 44.6 °F 40.7 °F 14.0 °F 29% 30.16 in 10.0 mi NNW 6.9 mph - N/A   Partly Cloudy
3:55 AM 42.8 °F 37.5 °F 14.0 °F 31% 30.16 in 10.0 mi NNW 9.2 mph - N/A   Partly Cloudy
4:15 AM 44.6 °F 39.2 °F 15.8 °F 31% 30.16 in 10.0 mi NNW 10.4 mph - N/A   Mostly Cloudy
4:35 AM 44.6 °F 40.2 °F 17.6 °F 34% 30.16 in 10.0 mi NNW 8.1 mph - N/A   Mostly Cloudy
4:55 AM 42.8 °F 37.5 °F 17.6 °F 36% 30.17 in 10.0 mi NNW 9.2 mph - N/A   Scattered Clouds
5:15 AM 44.6 °F 40.7 °F 17.6 °F 34% 30.17 in 10.0 mi North 6.9 mph - N/A   Mostly Cloudy
5:35 AM 41.0 °F - 17.6 °F 39% 30.18 in 10.0 mi Calm Calm - N/A   Mostly Cloudy
5:50 AM 41.0 °F - 17.6 °F 39% 30.19 in 10.0 mi Calm Calm - N/A   Partly Cloudy
6:50 AM 41.0 °F 36.4 °F 17.6 °F 39% 30.19 in 10.0 mi WNW 6.9 mph - N/A   Scattered Clouds
7:50 AM 41.0 °F 35.8 °F 19.4 °F 42% 30.21 in 10.0 mi North 8.1 mph - N/A   Scattered Clouds
8:50 AM 46.4 °F 41.9 °F 23.0 °F 40% 30.23 in 10.0 mi North 9.2 mph - N/A   Mostly Cloudy
9:50 AM 53.6 °F - 23.0 °F 30% 30.25 in 10.0 mi NNE 9.2 mph - N/A   Mostly Cloudy
10:50 AM 55.4 °F - 23.0 °F 29% 30.25 in 10.0 mi Calm Calm - N/A   Scattered Clouds
11:50 AM 57.2 °F - 23.0 °F 27% 30.26 in 10.0 mi Variable 5.8 mph - N/A   Scattered Clouds
12:50 PM 59.0 °F - 23.0 °F 25% 30.24 in 10.0 mi Calm Calm - N/A   Scattered Clouds
1:50 PM 62.6 °F - 23.0 °F 22% 30.21 in 10.0 mi Calm Calm - N/A   Scattered Clouds
2:50 PM 62.6 °F - 21.2 °F 20% 30.19 in 10.0 mi Calm Calm - N/A   Scattered Clouds
3:50 PM 64.4 °F - 21.2 °F 19% 30.18 in 10.0 mi Calm Calm - N/A   Partly Cloudy
4:50 PM 64.4 °F - 21.2 °F 19% 30.18 in 10.0 mi Calm Calm - N/A   Scattered Clouds
5:50 PM 59.0 °F - 19.4 °F 22% 30.18 in 10.0 mi Calm Calm - N/A   Scattered Clouds
6:50 PM 53.6 °F - 15.8 °F 22% 30.19 in 10.0 mi Calm Calm - N/A   Partly Cloudy
7:50 PM 46.4 °F - 14.0 °F 27% 30.20 in 10.0 mi Calm Calm - N/A   Clear
8:50 PM 48.2 °F - 17.6 °F 30% 30.22 in 10.0 mi Calm Calm - N/A   Clear
9:50 PM 44.6 °F 40.7 °F 15.8 °F 31% 30.23 in 10.0 mi NW 6.9 mph - N/A   Clear
10:15 PM 48.2 °F - 14.0 °F 25% 30.24 in 10.0 mi North 9.2 mph - N/A   Clear
10:35 PM 46.4 °F 41.5 °F 12.2 °F 25% 30.24 in 10.0 mi NNW 10.4 mph - N/A   Clear
10:55 PM 46.4 °F 41.9 °F 10.4 °F 23% 30.24 in 10.0 mi NW 9.2 mph - N/A   Clear
11:15 PM 48.2 °F - 10.4 °F 22% 30.25 in 10.0 mi NNW 9.2 mph - N/A   Clear
11:35 PM 46.4 °F 41.9 °F 10.4 °F 23% 30.25 in 10.0 mi NW 9.2 mph - N/A   Clear
11:55 PM 44.6 °F 40.2 °F 8.6 °F 23% 30.25 in 10.0 mi NNW 8.1 mph - N/A   Clear